FDX9900 EBLG-EKCH

Flight info

Callsign FDX9900
Flight time 1h 6m
Altitude 35000
Route LNO M170 KENUM N853 HMM M170 STADE L23 HAM P605 GESKA Z711 MONAK
Aircraft B77L/H-SDE1E2E3FGHIJ2J3J4J5M1RWXY/LB1D1

Departure

Time 2026-05-05 17:53
Airport Liège Airport (EBLG)

Arrival

Time 2026-05-05 18:59
Airport Copenhagen Kastrup Airport (EKCH)
Time Latitude Longitude Altitude Speed Heading
2026-05-05 17:33 50.63632 5.44792 597 ft 0 kts 132°
2026-05-05 17:44 50.63635 5.44787 597 ft 3 kts 133°
2026-05-05 17:44 50.63650 5.44763 598 ft 3 kts 135°
2026-05-05 17:44 50.63666 5.44731 598 ft 4 kts 125°
2026-05-05 17:44 50.63680 5.44708 599 ft 3 kts 165°
2026-05-05 17:45 50.63694 5.44702 599 ft 4 kts 214°
2026-05-05 17:45 50.63709 5.44728 599 ft 3 kts 227°
2026-05-05 17:45 50.63726 5.44756 599 ft 4 kts 226°
2026-05-05 17:45 50.63736 5.44772 599 ft 1 kts 226°
2026-05-05 17:47 50.63734 5.44770 599 ft 2 kts 226°
2026-05-05 17:48 50.63707 5.44725 599 ft 11 kts 225°
2026-05-05 17:48 50.63647 5.44631 599 ft 12 kts 226°
2026-05-05 17:48 50.63589 5.44534 599 ft 12 kts 226°
2026-05-05 17:48 50.63529 5.44440 599 ft 12 kts 225°
2026-05-05 17:49 50.63468 5.44347 599 ft 12 kts 224°
2026-05-05 17:49 50.63406 5.44255 599 ft 12 kts 222°
2026-05-05 17:49 50.63346 5.44161 600 ft 12 kts 227°
2026-05-05 17:49 50.63309 5.44095 600 ft 12 kts 226°
2026-05-05 17:50 50.63229 5.43967 600 ft 13 kts 225°
2026-05-05 17:50 50.63199 5.43891 601 ft 13 kts 265°
2026-05-05 17:50 50.63242 5.43839 613 ft 7 kts 356°
2026-05-05 17:50 50.63292 5.43845 614 ft 7 kts
2026-05-05 17:51 50.63341 5.43859 619 ft 7 kts 11°
2026-05-05 17:51 50.63418 5.43912 627 ft 21 kts 37°
2026-05-05 17:51 50.63590 5.44174 628 ft 58 kts 46°
2026-05-05 17:51 50.64031 5.44876 626 ft 120 kts 44°
2026-05-05 17:52 50.64746 5.45997 628 ft 166 kts 43°
2026-05-05 17:52 50.65615 5.47310 873 ft 183 kts 42°
2026-05-05 17:52 50.66596 5.48783 989 ft 206 kts 42°
2026-05-05 17:52 50.67686 5.50428 1030 ft 229 kts 43°
2026-05-05 17:53 50.68875 5.52276 1380 ft 255 kts 47°
2026-05-05 17:53 50.70025 5.54493 2103 ft 261 kts 45°
2026-05-05 17:53 50.71591 5.55878 3056 ft 261 kts 12°
2026-05-05 17:53 50.73370 5.55825 4305 ft 254 kts 346°
2026-05-05 17:54 50.74905 5.54624 5519 ft 243 kts 321°
2026-05-05 17:54 50.76055 5.52702 6526 ft 241 kts 301°
2026-05-05 17:54 50.76695 5.50270 7257 ft 242 kts 286°
2026-05-05 17:54 50.77136 5.47685 8031 ft 246 kts 284°
2026-05-05 17:55 50.77571 5.45056 8842 ft 248 kts 284°
2026-05-05 17:55 50.78005 5.42407 9625 ft 251 kts 282°
2026-05-05 17:55 50.78398 5.39618 10025 ft 272 kts 282°
2026-05-05 17:55 50.78811 5.36584 9999 ft 286 kts 282°
2026-05-05 17:56 50.79239 5.33504 10011 ft 289 kts 282°
2026-05-05 17:56 50.79677 5.30394 10007 ft 291 kts 282°
2026-05-05 17:56 50.80121 5.27258 10012 ft 292 kts 282°
2026-05-05 17:56 50.80564 5.24122 10007 ft 291 kts 281°
2026-05-05 17:57 50.80618 5.20981 9995 ft 287 kts 256°
2026-05-05 17:57 50.79768 5.18169 9997 ft 285 kts 229°
2026-05-05 17:57 50.78240 5.16231 10003 ft 284 kts 205°
2026-05-05 17:57 50.76356 5.15354 10005 ft 284 kts 183°
2026-05-05 17:58 50.74379 5.15503 10012 ft 285 kts 174°
2026-05-05 17:58 50.72399 5.15808 10007 ft 287 kts 174°
2026-05-05 17:58 50.70480 5.16428 9993 ft 286 kts 155°
2026-05-05 17:58 50.68869 5.18305 10006 ft 287 kts 130°
2026-05-05 17:59 50.67737 5.20897 10006 ft 287 kts 122°
2026-05-05 17:59 50.66690 5.23595 10013 ft 290 kts 121°
2026-05-05 17:59 50.65643 5.26325 10009 ft 292 kts 122°
2026-05-05 17:59 50.64586 5.29068 10009 ft 294 kts 122°
2026-05-05 18:00 50.63532 5.31785 10004 ft 295 kts 122°
2026-05-05 18:00 50.62465 5.34521 10004 ft 292 kts 122°
2026-05-05 18:00 50.61406 5.37228 9995 ft 288 kts 122°
2026-05-05 18:00 50.60357 5.39901 9993 ft 287 kts 122°
2026-05-05 18:01 50.59302 5.42581 10001 ft 288 kts 122°
2026-05-05 18:01 50.58248 5.45257 10005 ft 288 kts 122°
2026-05-05 18:01 50.57189 5.47937 10064 ft 289 kts 122°
2026-05-05 18:01 50.56127 5.50624 10790 ft 292 kts 123°
2026-05-05 18:02 50.55107 5.53405 11506 ft 296 kts 113°
2026-05-05 18:02 50.54779 5.56634 12196 ft 307 kts 86°
2026-05-05 18:02 50.55354 5.59898 12902 ft 315 kts 67°
2026-05-05 18:02 50.56285 5.63054 13625 ft 322 kts 66°
2026-05-05 18:03 50.57235 5.66283 14375 ft 326 kts 66°
2026-05-05 18:03 50.58344 5.69413 15125 ft 331 kts 57°
2026-05-05 18:03 50.59695 5.72461 15452 ft 351 kts 55°
2026-05-05 18:03 50.61192 5.75682 15618 ft 375 kts 54°
2026-05-05 18:04 50.62775 5.79071 15802 ft 397 kts 54°
2026-05-05 18:04 50.64428 5.82639 16297 ft 409 kts 55°
2026-05-05 18:04 50.66111 5.86306 16942 ft 416 kts 55°
2026-05-05 18:04 50.67812 5.90045 17691 ft 421 kts 55°
2026-05-05 18:05 50.69519 5.93823 18458 ft 425 kts 55°
2026-05-05 18:05 50.71233 5.97637 19151 ft 428 kts 56°
2026-05-05 18:05 50.72956 6.01482 19849 ft 430 kts 56°
2026-05-05 18:05 50.74686 6.05351 20539 ft 433 kts 56°
2026-05-05 18:06 50.76433 6.09266 21198 ft 437 kts 56°
2026-05-05 18:06 50.77593 6.11867 21621 ft 439 kts 56°
2026-05-05 18:06 50.79961 6.17187 22463 ft 445 kts 56°
2026-05-05 18:06 50.81746 6.21202 23106 ft 448 kts 56°
2026-05-05 18:07 50.83548 6.25263 23674 ft 452 kts 56°
2026-05-05 18:07 50.85355 6.29341 24197 ft 456 kts 56°
2026-05-05 18:07 50.87179 6.33464 24725 ft 459 kts 57°
2026-05-05 18:07 50.89014 6.37617 25221 ft 462 kts 57°
2026-05-05 18:08 50.90863 6.41810 25748 ft 465 kts 57°
2026-05-05 18:08 50.92720 6.46028 26248 ft 468 kts 57°
2026-05-05 18:08 50.94589 6.50280 26742 ft 472 kts 57°
2026-05-05 18:08 50.96462 6.54549 27228 ft 475 kts 57°
2026-05-05 18:09 50.98360 6.58882 27688 ft 479 kts 57°
2026-05-05 18:09 51.00264 6.63231 28138 ft 482 kts 57°
2026-05-05 18:09 51.02184 6.67626 28581 ft 485 kts 58°
2026-05-05 18:09 51.04155 6.71994 29010 ft 489 kts 56°
2026-05-05 18:10 51.06230 6.76309 29431 ft 493 kts 54°
2026-05-05 18:10 51.08328 6.80639 29831 ft 495 kts 55°
2026-05-05 18:10 51.10407 6.84999 30258 ft 495 kts 56°
2026-05-05 18:10 51.12473 6.89375 30695 ft 494 kts 56°
2026-05-05 18:11 51.14509 6.93697 31131 ft 494 kts 56°
2026-05-05 18:11 51.16593 6.98131 31575 ft 494 kts 56°
2026-05-05 18:11 51.18622 7.02455 31958 ft 494 kts 56°
2026-05-05 18:11 51.20680 7.06846 32340 ft 494 kts 57°
2026-05-05 18:12 51.22758 7.11285 32726 ft 494 kts 57°
2026-05-05 18:12 51.24786 7.15623 33096 ft 494 kts 57°
2026-05-05 18:12 51.26843 7.20032 33459 ft 494 kts 57°
2026-05-05 18:12 51.28889 7.24426 33815 ft 495 kts 57°
2026-05-05 18:13 51.30946 7.28848 34094 ft 495 kts 57°
2026-05-05 18:13 51.32996 7.33262 34351 ft 496 kts 57°
2026-05-05 18:13 51.35211 7.37527 34564 ft 502 kts 47°
2026-05-05 18:13 51.37923 7.41085 34744 ft 508 kts 36°
2026-05-05 18:14 51.41019 7.43882 34792 ft 513 kts 25°
2026-05-05 18:14 51.47852 7.47182 34830 ft 511 kts 16°
2026-05-05 18:15 51.54651 7.50389 34824 ft 508 kts 18°
2026-05-05 18:15 51.61379 7.53839 34829 ft 508 kts 18°
2026-05-05 18:16 51.68127 7.57254 34831 ft 508 kts 18°
2026-05-05 18:16 51.74680 7.61500 34829 ft 508 kts 29°
2026-05-05 18:17 51.80638 7.67546 34840 ft 506 kts 40°
2026-05-05 18:17 51.86029 7.74877 34847 ft 507 kts 43°
2026-05-05 18:18 51.91341 7.82421 34852 ft 509 kts 43°
2026-05-05 18:18 51.96690 7.89981 34853 ft 511 kts 43°
2026-05-05 18:19 52.02072 7.97524 34846 ft 512 kts 43°
2026-05-05 18:19 52.07473 8.05087 34856 ft 513 kts 42°
2026-05-05 18:20 52.12885 8.12689 34842 ft 514 kts 42°
2026-05-05 18:20 52.18295 8.20321 34844 ft 515 kts 42°
2026-05-05 18:21 52.23705 8.27982 34851 ft 515 kts 42°
2026-05-05 18:21 52.29103 8.35652 34852 ft 515 kts 42°
2026-05-05 18:22 52.34504 8.43351 34854 ft 515 kts 42°
2026-05-05 18:22 52.39897 8.51065 34851 ft 515 kts 42°
2026-05-05 18:23 52.45296 8.58814 34858 ft 516 kts 42°
2026-05-05 18:23 52.50652 8.66527 34856 ft 516 kts 42°
2026-05-05 18:24 52.56084 8.74375 34860 ft 517 kts 42°
2026-05-05 18:24 52.61437 8.82137 34861 ft 517 kts 42°
2026-05-05 18:25 52.66834 8.89988 34867 ft 518 kts 42°
2026-05-05 18:25 52.72229 8.97863 34869 ft 518 kts 42°
2026-05-05 18:26 52.77629 9.05774 34862 ft 519 kts 42°
2026-05-05 18:26 52.83021 9.13699 34873 ft 520 kts 42°
2026-05-05 18:27 52.88428 9.21675 34875 ft 521 kts 42°
2026-05-05 18:27 52.93841 9.29687 34878 ft 521 kts 41°
2026-05-05 18:28 53.01950 9.41743 34874 ft 522 kts 41°
2026-05-05 18:28 53.07358 9.49818 34881 ft 523 kts 41°
2026-05-05 18:29 53.12755 9.57905 34883 ft 523 kts 41°
2026-05-05 18:29 53.18168 9.66045 34893 ft 524 kts 41°
2026-05-05 18:30 53.23577 9.74209 34886 ft 524 kts 41°
2026-05-05 18:30 53.28981 9.82394 34895 ft 524 kts 41°
2026-05-05 18:31 53.34380 9.90600 34903 ft 525 kts 41°
2026-05-05 18:31 53.39625 9.98601 34903 ft 525 kts 41°
2026-05-05 18:32 53.45020 10.06858 34909 ft 525 kts 41°
2026-05-05 18:32 53.50420 10.15153 34892 ft 526 kts 41°
2026-05-05 18:33 53.55810 10.23464 34891 ft 526 kts 41°
2026-05-05 18:33 53.61210 10.31820 34891 ft 527 kts 41°
2026-05-05 18:34 53.66600 10.40191 34909 ft 527 kts 41°
2026-05-05 18:34 53.71986 10.48586 34913 ft 528 kts 41°
2026-05-05 18:35 53.76462 10.55587 34912 ft 528 kts 41°
2026-05-05 18:35 53.81860 10.64058 34915 ft 528 kts 41°
2026-05-05 18:36 53.87232 10.72519 34912 ft 528 kts 41°
2026-05-05 18:36 53.92617 10.81031 34913 ft 528 kts 41°
2026-05-05 18:37 53.95314 10.85304 34490 ft 535 kts 41°
2026-05-05 18:37 53.98062 10.89665 33612 ft 543 kts 41°
2026-05-05 18:37 54.00822 10.94055 32708 ft 543 kts 41°
2026-05-05 18:37 54.03569 10.98437 31828 ft 542 kts 41°
2026-05-05 18:38 54.06322 11.02836 30927 ft 542 kts 41°
2026-05-05 18:38 54.09043 11.07194 30370 ft 535 kts 41°
2026-05-05 18:38 54.11737 11.11518 29772 ft 528 kts 41°
2026-05-05 18:38 54.14395 11.15790 29160 ft 521 kts 41°
2026-05-05 18:39 54.17007 11.19996 28611 ft 514 kts 41°
2026-05-05 18:39 54.19561 11.24113 28110 ft 507 kts 41°
2026-05-05 18:39 54.22154 11.28300 27920 ft 507 kts 41°
2026-05-05 18:39 54.24723 11.32453 27145 ft 512 kts 41°
2026-05-05 18:40 54.27294 11.36617 26547 ft 508 kts 41°
2026-05-05 18:40 54.29812 11.40705 25961 ft 502 kts 41°
2026-05-05 18:40 54.32358 11.44851 25424 ft 496 kts 41°
2026-05-05 18:40 54.34811 11.48849 24908 ft 491 kts 41°
2026-05-05 18:41 54.37302 11.52917 24393 ft 485 kts 41°
2026-05-05 18:41 54.39734 11.56895 23894 ft 480 kts 41°
2026-05-05 18:41 54.42135 11.60828 23368 ft 476 kts 41°
2026-05-05 18:41 54.44489 11.64691 22806 ft 471 kts 41°
2026-05-05 18:42 54.46870 11.68605 22274 ft 465 kts 41°
2026-05-05 18:42 54.49164 11.72382 21789 ft 460 kts 41°
2026-05-05 18:42 54.51488 11.76215 21297 ft 454 kts 41°
2026-05-05 18:42 54.53756 11.79962 20828 ft 450 kts 41°
2026-05-05 18:43 54.55972 11.83627 20362 ft 445 kts 41°
2026-05-05 18:43 54.58195 11.87309 19896 ft 441 kts 41°
2026-05-05 18:43 54.60395 11.90954 19444 ft 437 kts 40°
2026-05-05 18:43 54.62674 11.94351 18977 ft 431 kts 34°
2026-05-05 18:44 54.65118 11.97292 18522 ft 425 kts 30°
2026-05-05 18:44 54.67581 12.00094 18021 ft 422 kts 29°
2026-05-05 18:44 54.70026 12.02862 17519 ft 419 kts 30°
2026-05-05 18:44 54.72446 12.05618 17034 ft 415 kts 30°
2026-05-05 18:45 54.74840 12.08366 16574 ft 411 kts 30°
2026-05-05 18:45 54.77212 12.11106 16129 ft 407 kts 30°
2026-05-05 18:45 54.79547 12.13815 15671 ft 403 kts 30°
2026-05-05 18:45 54.81860 12.16506 15241 ft 399 kts 31°
2026-05-05 18:46 54.84152 12.19177 14796 ft 395 kts 31°
2026-05-05 18:46 54.86423 12.21827 14369 ft 391 kts 31°
2026-05-05 18:46 54.88667 12.24449 13948 ft 388 kts 31°
2026-05-05 18:46 54.90900 12.27060 13486 ft 384 kts 31°
2026-05-05 18:47 54.93101 12.29638 13016 ft 380 kts 31°
2026-05-05 18:47 54.95289 12.32204 12572 ft 376 kts 31°
2026-05-05 18:47 54.97443 12.34734 12145 ft 372 kts 31°
2026-05-05 18:47 54.99571 12.37235 11727 ft 367 kts 31°
2026-05-05 18:48 55.01685 12.39715 11330 ft 363 kts 31°
2026-05-05 18:48 55.03770 12.42147 10903 ft 359 kts 31°
2026-05-05 18:48 55.05807 12.44524 10747 ft 340 kts 31°
2026-05-05 18:48 55.07681 12.46719 10572 ft 312 kts 31°
2026-05-05 18:49 55.09451 12.48789 10476 ft 300 kts 31°
2026-05-05 18:49 55.11150 12.50778 10359 ft 289 kts 31°
2026-05-05 18:49 55.12793 12.52703 10218 ft 278 kts 31°
2026-05-05 18:49 55.14372 12.54555 10126 ft 274 kts 31°
2026-05-05 18:50 55.15959 12.56415 9945 ft 276 kts 31°
2026-05-05 18:50 55.17565 12.58301 9578 ft 278 kts 31°
2026-05-05 18:50 55.19172 12.60192 9130 ft 279 kts 32°
2026-05-05 18:50 55.20809 12.61954 8666 ft 273 kts 19°
2026-05-05 18:51 55.22619 12.62476 8190 ft 257 kts 351°
2026-05-05 18:51 55.24316 12.61715 7510 ft 249 kts 338°
2026-05-05 18:51 55.25884 12.60612 7160 ft 235 kts 335°
2026-05-05 18:51 55.27391 12.59466 7015 ft 243 kts 335°
2026-05-05 18:52 55.28981 12.58230 6982 ft 253 kts 335°
2026-05-05 18:52 55.30579 12.56970 6567 ft 250 kts 335°
2026-05-05 18:52 55.32151 12.55692 5950 ft 248 kts 335°
2026-05-05 18:52 55.33702 12.54395 5225 ft 246 kts 335°
2026-05-05 18:53 55.35224 12.53088 4573 ft 242 kts 335°
2026-05-05 18:53 55.36719 12.51776 3855 ft 241 kts 335°
2026-05-05 18:53 55.38190 12.50475 3292 ft 232 kts 335°
2026-05-05 18:53 55.39601 12.49217 3042 ft 228 kts 335°
2026-05-05 18:54 55.41035 12.47932 3027 ft 233 kts 335°
2026-05-05 18:54 55.42473 12.46640 2870 ft 229 kts 335°
2026-05-05 18:54 55.43886 12.45365 2437 ft 229 kts 335°
2026-05-05 18:54 55.45290 12.44098 2088 ft 223 kts 335°
2026-05-05 18:55 55.46611 12.42908 2015 ft 211 kts 336°
2026-05-05 18:55 55.48009 12.42292 2014 ft 209 kts
2026-05-05 18:55 55.49408 12.42934 1998 ft 211 kts 34°
2026-05-05 18:55 55.50643 12.44382 1979 ft 215 kts 20°
2026-05-05 18:56 55.51907 12.45650 1898 ft 214 kts 45°
2026-05-05 18:56 55.52766 12.47840 1787 ft 219 kts 60°
2026-05-05 18:56 55.53463 12.50177 1812 ft 213 kts 59°
2026-05-05 18:56 55.54190 12.52419 1535 ft 205 kts 53°
2026-05-05 18:57 55.55101 12.54234 1029 ft 191 kts 39°
2026-05-05 18:57 55.56083 12.55689 990 ft 178 kts 36°
2026-05-05 18:57 55.57026 12.57014 938 ft 170 kts 39°
2026-05-05 18:57 55.57898 12.58362 469 ft 164 kts 36°
2026-05-05 18:58 55.58704 12.59583 179 ft 142 kts 38°
2026-05-05 18:58 55.59387 12.60638 30 ft 116 kts 38°
2026-05-05 18:58 55.59925 12.61430 27 ft 90 kts 41°
2026-05-05 18:58 55.60305 12.62015 29 ft 54 kts 40°
2026-05-05 18:59 55.60524 12.62290 28 ft 24 kts 18°
2026-05-05 18:59 55.60642 12.62342 32 ft 5 kts 11°
2026-05-05 18:59 55.60643 12.62342 32 ft 0 kts 11°
2026-05-05 19:00 55.60755 12.62389 30 ft 27 kts 23°
2026-05-05 19:00 55.60900 12.62575 27 ft 25 kts 41°
2026-05-05 19:00 55.61033 12.62766 27 ft 25 kts 39°
2026-05-05 19:00 55.61164 12.62958 30 ft 25 kts 46°
2026-05-05 19:01 55.61285 12.63171 32 ft 25 kts 41°
2026-05-05 19:01 55.61416 12.63364 30 ft 25 kts 40°
2026-05-05 19:01 55.61545 12.63563 27 ft 25 kts 40°
2026-05-05 19:01 55.61674 12.63760 29 ft 25 kts 42°
2026-05-05 19:02 55.61801 12.63962 31 ft 25 kts 41°
2026-05-05 19:02 55.61941 12.64130 28 ft 25 kts 25°
2026-05-05 19:02 55.62099 12.64259 26 ft 25 kts 25°
2026-05-05 19:02 55.62143 12.64296 25 ft 0 kts 26°
2026-05-05 19:03 55.62146 12.64299 24 ft 3 kts 26°
2026-05-05 19:03 55.62210 12.64424 23 ft 20 kts 91°
2026-05-05 19:03 55.62148 12.64643 31 ft 20 kts 120°
2026-05-05 19:04 55.62081 12.64834 31 ft 15 kts 123°
2026-05-05 19:04 55.62062 12.64883 30 ft 0 kts 123°
2026-05-05 19:05 55.62022 12.64988 28 ft 27 kts 123°
2026-05-05 19:05 55.61918 12.65249 24 ft 26 kts 123°
2026-05-05 19:05 55.61819 12.65512 26 ft 26 kts 127°
2026-05-05 19:05 55.61722 12.65779 28 ft 26 kts 120°
2026-05-05 19:06 55.61644 12.66061 27 ft 26 kts 101°
2026-05-05 19:06 55.61701 12.66346 26 ft 26 kts 41°
2026-05-05 19:06 55.61831 12.66437 23 ft 14 kts 27°
2026-05-05 19:06 55.61864 12.66597 20 ft 15 kts 84°
2026-05-05 19:07 55.61877 12.66778 19 ft 15 kts 81°
2026-05-05 19:07 55.61873 12.66948 19 ft 6 kts 139°
2026-05-05 19:07 55.61866 12.66955 19 ft 0 kts 148°
2026-05-05 19:08 55.61865 12.66958 19 ft 3 kts 139°
2026-05-05 19:08 55.61869 12.67065 20 ft 10 kts 79°
2026-05-05 19:08 55.61876 12.67132 22 ft 0 kts 79°